Weather History for KMDJ - August, 2014

Change the Weather History Date:

Tuesday, August 26, 2014

  Actual Average Record
Temperature  
Mean Temperature 82 °F -  
Max Temperature 86 °F - - ()
Min Temperature 77 °F - - ()
Cooling Degree Days 16    
Growing Degree Days 32 (Base 50)    
Moisture  
Dew Point 76 °F    
Average Humidity 79    
Maximum Humidity 94    
Minimum Humidity 70    
Precipitation  
Precipitation 0.00 in - - ()
Sea Level Pressure  
Sea Level Pressure 29.96 in    
Wind  
Wind Speed 20 mph (East)    
Max Wind Speed 36 mph    
Max Gust Speed 43 mph    
Visibility 8 miles    
Events Fog    
Averages and records for this station are not official NWS values.
T = Trace of Precipitation, MM = Missing Value Source: NWS Daily Summary

Daily Weather History Graph

Daily Weather History Graph

Search for Another Location

Airport or City:

Trip Planner

Search our weather history database for the weather conditions in past years. The results will help you decide how hot, cold, wet, or windy it might be!

Date:

Astronomy

Aug. 26, 2014 Rise Set
Actual Time 6:34 AM CDT 7:27 PM CDT
Civil Twilight 6:09 AM CDT 7:51 PM CDT
Nautical Twilight 5:41 AM CDT 8:19 PM CDT
Astronomical Twilight 5:12 AM CDT 8:49 PM CDT
Moon 7:26 AM CDT (8/26) 7:59 PM CDT (8/26)
Length of Visible Light 13h 41m
Length of Day
12h 52m
New Moon, 1% of the Moon is Illuminated
Aug 26
New Moon
Sep 2
First Quarter
Sep 8
Full
Sep 15
Last Quarter
Sep 24
New

Hourly Weather History & Observations

Time (CDT) Temp. Heat Index Dew Point Humidity Pressure Visibility Wind Dir Wind Speed Gust Speed Precip Events Conditions
12:15 AM 82.4 °F 89.5 °F 75.2 °F 79% 29.94 in 9.0 mi East 24.2 mph - N/A   Overcast
12:35 AM 82.4 °F 88.2 °F 73.4 °F 74% 29.95 in 10.0 mi ENE 19.6 mph - N/A   Mostly Cloudy
12:55 AM 80.6 °F 86.2 °F 75.2 °F 84% 29.96 in 10.0 mi NE 24.2 mph - N/A   Mostly Cloudy
1:15 AM 78.8 °F - 75.2 °F 89% 29.95 in 7.0 mi NE 20.7 mph 27.6 mph N/A   Mostly Cloudy
1:35 AM 80.6 °F 86.2 °F 75.2 °F 84% 29.94 in 6.0 mi NNE 19.6 mph - N/A   Haze
1:55 AM 80.6 °F 86.2 °F 75.2 °F 84% 29.94 in 10.0 mi NE 16.1 mph - N/A   Overcast
2:15 AM 80.6 °F 86.2 °F 75.2 °F 84% 29.93 in - NE 13.8 mph - N/A   Overcast
2:35 AM 80.6 °F 86.2 °F 75.2 °F 84% 29.93 in - NE 17.3 mph - N/A   Mostly Cloudy
2:55 AM 78.8 °F - 73.4 °F 83% 29.93 in 4.0 mi ENE 19.6 mph 26.5 mph N/A   Haze
3:15 AM 78.8 °F - 75.2 °F 89% 29.91 in 7.0 mi NNE 13.8 mph - N/A   Mostly Cloudy
3:35 AM 78.8 °F - 73.4 °F 83% 29.93 in 0.8 mi ENE 16.1 mph 25.3 mph N/A   Overcast
3:55 AM 78.8 °F - 75.2 °F 89% 29.91 in 4.0 mi NNE 24.2 mph - N/A   Mostly Cloudy
4:15 AM 78.8 °F - 75.2 °F 89% 29.92 in 2.0 mi North 16.1 mph 24.2 mph N/A   Overcast
4:35 AM 80.6 °F 86.2 °F 75.2 °F 84% 29.93 in 0.8 mi East 12.7 mph - N/A   Haze
4:55 AM 80.6 °F 87.1 °F 77.0 °F 89% 29.91 in 2.0 mi North 3.5 mph - N/A   Overcast
5:15 AM 80.6 °F 87.1 °F 77.0 °F 89% 29.91 in 9.0 mi WSW 5.8 mph - N/A   Overcast
5:35 AM 80.6 °F 87.1 °F 77.0 °F 89% 29.91 in 1.2 mi Calm Calm 11.5 mph N/A   Overcast
5:55 AM 82.4 °F 90.9 °F 77.0 °F 84% 29.92 in 7.0 mi SE 13.8 mph - N/A   Mostly Cloudy
6:15 AM 80.6 °F 87.1 °F 77.0 °F 89% 29.92 in 1.2 mi SE 29.9 mph - N/A   Haze
6:35 AM 80.6 °F 86.2 °F 75.2 °F 84% 29.94 in 0.5 mi Variable 4.6 mph 18.4 mph N/A   Haze
6:55 AM 78.8 °F - 75.2 °F 89% 29.95 in 0.2 mi SE 27.6 mph - N/A Fog Fog
7:15 AM 77.0 °F - 75.2 °F 94% 29.94 in 0.2 mi SSE 25.3 mph 33.4 mph N/A Fog Fog
7:35 AM 80.6 °F 87.1 °F 77.0 °F 89% 29.94 in 10.0 mi SSE 21.9 mph - N/A   Mostly Cloudy
7:55 AM 80.6 °F 87.1 °F 77.0 °F 89% 29.94 in 8.0 mi SE 17.3 mph - N/A   Partly Cloudy
8:15 AM 80.6 °F 86.2 °F 75.2 °F 84% 29.94 in 8.0 mi SE 28.8 mph - N/A   Scattered Clouds
8:55 AM 84.2 °F 92.3 °F 75.2 °F 74% 29.96 in 10.0 mi ESE 15.0 mph - N/A   Clear
9:55 AM 86.0 °F 96.9 °F 77.0 °F 74% 29.97 in 10.0 mi ESE 20.7 mph - N/A   Partly Cloudy
10:15 AM 86.0 °F 95.1 °F 75.2 °F 70% 29.97 in 10.0 mi East 20.7 mph - N/A   Partly Cloudy
10:35 AM 86.0 °F 96.9 °F 77.0 °F 74% 29.98 in 10.0 mi East 21.9 mph - N/A   Clear
10:55 AM 86.0 °F 96.9 °F 77.0 °F 74% 29.99 in 10.0 mi ESE 24.2 mph - N/A   Mostly Cloudy
11:15 AM 86.0 °F 96.9 °F 77.0 °F 74% 29.98 in 10.0 mi ESE 23.0 mph - N/A   Mostly Cloudy
11:35 AM 86.0 °F 99.3 °F 78.8 °F 79% 29.98 in 9.0 mi East 18.4 mph 26.5 mph N/A   Mostly Cloudy
11:55 AM 84.2 °F 94.1 °F 77.0 °F 79% 29.98 in 10.0 mi East 19.6 mph - N/A   Scattered Clouds
12:15 PM 82.4 °F 89.5 °F 75.2 °F 79% 29.98 in 7.0 mi SE 35.7 mph 42.6 mph N/A   Mostly Cloudy
12:35 PM 78.8 °F - 75.2 °F 89% 29.98 in 0.2 mi ESE 6.9 mph 18.4 mph N/A Fog Fog
12:55 PM 80.6 °F 87.1 °F 77.0 °F 89% 29.99 in 0.8 mi NE 20.7 mph - N/A   Overcast
1:15 PM 80.6 °F 87.1 °F 77.0 °F 89% 29.98 in 6.0 mi NNE 21.9 mph - N/A   Mostly Cloudy
1:35 PM 82.4 °F 90.9 °F 77.0 °F 84% 29.98 in 9.0 mi ESE 25.3 mph - N/A   Overcast
1:55 PM 86.0 °F 95.1 °F 75.2 °F 70% 29.98 in 10.0 mi East 24.2 mph 29.9 mph N/A   Mostly Cloudy
2:15 PM 86.0 °F 95.1 °F 75.2 °F 70% 29.98 in 9.0 mi East 19.6 mph - N/A   Mostly Cloudy
2:35 PM 86.0 °F 95.1 °F 75.2 °F 70% 29.97 in 10.0 mi East 21.9 mph - N/A   Scattered Clouds
2:55 PM 86.0 °F 95.1 °F 75.2 °F 70% 29.98 in 10.0 mi East 19.6 mph - N/A   Mostly Cloudy
3:15 PM 84.2 °F 92.3 °F 75.2 °F 74% 29.97 in 10.0 mi East 19.6 mph - N/A   Mostly Cloudy
3:35 PM 86.0 °F 95.1 °F 75.2 °F 70% 29.96 in 9.0 mi East 18.4 mph - N/A   Clear
3:55 PM 84.2 °F 92.3 °F 75.2 °F 74% 29.96 in 4.0 mi ESE 18.4 mph - N/A   Haze
4:15 PM 84.2 °F 92.3 °F 75.2 °F 74% 29.96 in 9.0 mi East 20.7 mph - N/A   Scattered Clouds
4:35 PM 86.0 °F 95.1 °F 75.2 °F 70% 29.96 in 10.0 mi East 19.6 mph - N/A   Partly Cloudy
4:55 PM 84.2 °F 94.1 °F 77.0 °F 79% 29.97 in 9.0 mi ENE 20.7 mph - N/A   Mostly Cloudy
5:15 PM 84.2 °F 94.1 °F 77.0 °F 79% 29.97 in 6.0 mi ENE 20.7 mph - N/A   Haze
5:35 PM 84.2 °F 92.3 °F 75.2 °F 74% 29.97 in 10.0 mi ENE 20.7 mph - N/A   Clear
5:55 PM 84.2 °F 92.3 °F 75.2 °F 74% 29.97 in 10.0 mi ENE 20.7 mph - N/A   Clear
6:15 PM 84.2 °F 92.3 °F 75.2 °F 74% 29.96 in 10.0 mi ENE 19.6 mph - N/A   Clear
6:35 PM 84.2 °F 92.3 °F 75.2 °F 74% 29.96 in 10.0 mi ENE 19.6 mph - N/A   Partly Cloudy
6:55 PM 84.2 °F 92.3 °F 75.2 °F 74% 29.97 in 10.0 mi East 19.6 mph - N/A   Clear
7:15 PM 84.2 °F 92.3 °F 75.2 °F 74% 29.97 in 10.0 mi ENE 18.4 mph - N/A   Partly Cloudy
7:35 PM 84.2 °F 92.3 °F 75.2 °F 74% 29.96 in 10.0 mi ENE 17.3 mph - N/A   Clear
7:55 PM 84.2 °F 92.3 °F 75.2 °F 74% 29.97 in 10.0 mi ENE 18.4 mph - N/A   Scattered Clouds
8:15 PM 86.0 °F 96.9 °F 77.0 °F 74% 29.97 in 10.0 mi East 19.6 mph - N/A   Mostly Cloudy
8:35 PM 86.0 °F 96.9 °F 77.0 °F 74% 29.97 in 10.0 mi East 19.6 mph - N/A   Mostly Cloudy
8:55 PM 86.0 °F 95.1 °F 75.2 °F 70% 29.97 in 10.0 mi East 20.7 mph 26.5 mph N/A   Mostly Cloudy
9:15 PM 86.0 °F 95.1 °F 75.2 °F 70% 29.97 in 10.0 mi East 23.0 mph - N/A   Mostly Cloudy
9:35 PM 86.0 °F 96.9 °F 77.0 °F 74% 29.98 in 10.0 mi East 20.7 mph - N/A   Mostly Cloudy
9:55 PM 86.0 °F 96.9 °F 77.0 °F 74% 29.97 in 10.0 mi ESE 20.7 mph - N/A   Mostly Cloudy
10:15 PM 84.2 °F 94.1 °F 77.0 °F 79% 29.97 in 10.0 mi SE 23.0 mph - N/A   Mostly Cloudy
10:35 PM 86.0 °F 95.1 °F 75.2 °F 70% 29.97 in 10.0 mi ESE 21.9 mph - N/A   Overcast
10:55 PM 86.0 °F 95.1 °F 75.2 °F 70% 29.97 in 10.0 mi ESE 20.7 mph - N/A   Mostly Cloudy
11:15 PM 86.0 °F 95.1 °F 75.2 °F 70% 29.98 in 10.0 mi ESE 20.7 mph - N/A   Overcast
11:35 PM 86.0 °F 96.9 °F 77.0 °F 74% 29.97 in 10.0 mi ESE 24.2 mph - N/A   Mostly Cloudy
11:55 PM 86.0 °F 95.1 °F 75.2 °F 70% 29.97 in 10.0 mi ESE 23.0 mph - N/A   Overcast